Regional Weather Roundup
Issued by NWS Jackson, KY

Home | Current Version | Previous Version | Graphics & Text | Print | Product List | Glossary Off
Versions: 1 2 3 4 5 6 7 8 9 10 11 12 13 14 15 16 17 18 19 20 21 22 23 24 25 26 27

000
ASUS43 KJKL 231510
RWRJKL

EAST KENTUCKY HOURLY WEATHER ROUNDUP
NATIONAL WEATHER SERVICE JACKSON KY
1100 AM EDT WED AUG 23 2017

NOTE: "FAIR" INDICATES FEW OR NO CLOUDS BELOW 12,000 FEET WITH
NO SIGNIFICANT WEATHER AND/OR OBSTRUCTIONS TO VISIBILITY.

* THESE REPORTS ARE NOT UNDER NWS QUALITY CONTROL AND MAY NOT
  REPORT WEATHER SUCH AS PRECIPITATION AND FOG.

KYZ079-080-083-085-087-088-110-112-115-119-120-231600
...EASTERN KENTUCKY...

CITY           SKY/WX    TMP DP  RH WIND       PRES   REMARKS
JACKSON        MOSUNNY   75  65  70 CALM      30.02S
LONDON         CLOUDY    73  65  75 N5        30.02S
SOMERSET*      CLOUDY    72  63  73 W6        30.04S
MONTICELLO*    PTSUNNY   74  66  76 N13       30.05R
WILLIAMSBURG*  MOSUNNY   73  70  88 N5        30.02F
MIDDLESBORO*   PTSUNNY   78  68  71 NW8       30.01S
HARLAN APT*    CLOUDY    75  64  69 CALM      30.02S
PIKE CO APT*   PTSUNNY   72  69  90 N3        30.02S
BIG SANDY APT* PTSUNNY   73  67  84 N6        30.02S
MOREHEAD APT*  CLOUDY    72  61  68 VRB5      30.05R
$$

KYZ035-036-041-042-044-050-067-078-099-231600
...CENTRAL KENTUCKY...

CITY           SKY/WX    TMP DP  RH WIND       PRES   REMARKS
MT STERLING*   CLOUDY    70  57  64 NE3       30.06R
FLEMING/MASON* SUNNY     71  56  59 NE9       30.05S
DANVILLE*      PTSUNNY   72  57  60 NE7       30.06R
LEXINGTON      MOSUNNY   73  56  54 N7        30.05R
FRANKFORT      MOSUNNY   73  54  51 NE8       30.04R
LOUISVILLE     MOSUNNY   75  58  55 E6        30.04R
LEBANON*         N/A     73  59  60 NE3       30.05R
GLASGOW*       SUNNY     75  60  60 N7        30.04S
BOWLING GREEN  SUNNY     77  62  59 VRB6      30.05R
$$

KYZ091>093-OHZ055-061-077-WVZ005-015-034-035-042-231600
...SOUTHERN OHIO/WEST VIRGINIA...

CITY           SKY/WX    TMP DP  RH WIND       PRES   REMARKS
COVINGTON      MOSUNNY   74  55  51 N9        30.04R
COLUMBUS       MOSUNNY   74  55  51 N10       30.01S
DAYTON         MOSUNNY   71  55  56 N10       30.05R
WILMINGTON     SUNNY     71  56  58 N9        30.03S
HUNTINGTON     MOSUNNY   73  61  65 VRB6      30.00S
CHARLESTON     PTSUNNY   74  61  63 CALM      29.99S
PINEVILLE*     MOSUNNY   74  65  74 MISG      30.06S
BECKLEY        CLOUDY    69  62  78 N8        30.04S
BLUEFIELD      CLOUDY    69  63  81 W6        30.06R
LOGAN CO APT*  PTSUNNY   73  66  78 CALM      30.01S
$$

VAZ002-007-008-TNZ017-027-036-066-071-231600
...SOUTHWEST VIRGINIA/EAST TENNESSEE...

CITY           SKY/WX    TMP DP  RH WIND       PRES   REMARKS
WISE*          CLOUDY    72  68  88 CALM      30.07F
JONESVILLE*      N/A     77  66  69 CALM      30.03S
ABINGDON*      CLOUDY    75  68  79 N5        30.03S
BRISTOL        CLOUDY    77  68  73 VRB3      30.01R
MORRISTOWN*    MOSUNNY   77  66  69 N8        30.00S
SEVIERVILLE*   CLOUDY    75  68  78 VRB3      30.00R
KNOXVILLE      PTSUNNY   79  68  69 VRB6      29.99S
LAFOLLETTE*    SUNNY     77  66  69 CALM      30.04S
CROSSVILLE     PTSUNNY   72  63  73 NW8       30.07R
NASHVILLE      MOSUNNY   77  66  68 CALM      30.05S
$$

...KEY TO REMARKS...
VSB - VISIBILITY IN MILES
WCI - WIND CHILL INDEX
HX  - HEAT INDEX

$$




USA.gov is the U.S. government's official web portal to all federal, state and local government web resources and services.